{"data":{"norad_id":49211,"intl_designator":"2021-083AB","name":"ONEWEB-0345","alt_names":[],"object_type":"PAYLOAD","status":"ACTIVE","operator":null,"country":"UK","launch_date":"2021-09-14","launch_site_code":"TYMSC","launch_vehicle":null,"mission":null,"orbit_class":"UNKNOWN","rcs_meters":null,"size_class":null,"mass_kg":null,"dimensions":null,"purposes":["comms"],"wikipedia_slug":null,"has_3d_model":false,"image_url":null,"decayed_at":null,"tle_current":{"epoch":"2026-05-24T22:52:53.424768Z","epoch_age_seconds":79032,"freshness":"FRESH","line1":"1 49211U 21083AB  26144.95339612  .00000357  00000+0  94230-3 0  9991","line2":"2 49211  87.8947 324.8490 0001697 102.3095 257.8224 13.13468923227859","mean_motion":13.13468923,"eccentricity":0.0001697,"inclination_deg":87.8947,"raan_deg":324.849,"arg_perigee_deg":102.3095,"mean_anomaly_deg":257.8224,"bstar":0.0009423,"rev_number":22785,"period_min":109.63335140895,"perigee_km":1208.4818800404,"apogee_km":1211.0572155227,"semimajor_km":7587.9065477816,"source":"CELESTRAK","updated_at":"2026-05-25T13:38:22.516335Z"}}}